,,Stat6,,Stat2,,Stat8,,Stat9,,Stat10,,Wind1,,Wind1,
time,status,PA1M_AVG,status,PR1M_SUM,status,RH1M_AVG,status,SR1M_AVG,status,TA1M_AVG,status,W1dAve1m,status,W1sAve1m,
2009-07-11, 00:00:00,VALID,917.323,VALID,0,VALID,100,VALID,-0.0339617,VALID,19.8306,VALID,26,VALID,0,
2009-07-11, 00:01:00,VALID,917.299,VALID,0,VALID,100,VALID,0,VALID,19.8303,VALID,26,VALID,0.0475694,
2009-07-11, 00:02:00,VALID,917.281,VALID,0,VALID,100,VALID,-0.0339617,VALID,19.8144,VALID,35,VALID,0,
2009-07-11, 00:03:00,VALID,917.274,VALID,0,VALID,100,VALID,0,VALID,19.8338,VALID,29,VALID,0,
2009-07-11, 00:04:00,VALID,917.263,VALID,0,VALID,100,VALID,0,VALID,19.8301,VALID,35,VALID,0.00138889,
2009-07-11, 00:05:00,VALID,917.26,VALID,0,VALID,100,VALID,-0.0679233,VALID,19.8566,VALID,32,VALID,0,
2009-07-11, 00:06:00,VALID,917.258,VALID,0,VALID,100,VALID,-0.0169808,VALID,19.8598,VALID,32,VALID,0,
2009-07-11, 00:07:00,VALID,917.275,VALID,0,VALID,100,VALID,-0.0169808,VALID,19.8011,VALID,12,VALID,0,
2009-07-11, 00:08:00,VALID,917.305,VALID,0,VALID,100,VALID,0,VALID,19.762,VALID,33,VALID,0,
2009-07-11, 00:09:00,VALID,917.33,VALID,0,VALID,100,VALID,0,VALID,19.7719,VALID,33,VALID,0,
2009-07-11, 00:10:00,VALID,917.372,VALID,0,VALID,100,VALID,0,VALID,19.7946,VALID,31,VALID,0,
2009-07-11, 00:11:00,VALID,917.421,VALID,0,VALID,100,VALID,-0.0339617,VALID,19.8014,VALID,31,VALID,0,
2009-07-11, 00:12:00,VALID,917.475,VALID,0,VALID,100,VALID,-0.0169808,VALID,19.7852,VALID,31,VALID,0,
2009-07-11, 00:13:00,VALID,917.509,VALID,0,VALID,100,VALID,-0.0169808,VALID,19.7914,VALID,31,VALID,0,
2009-07-11, 00:14:00,VALID,917.553,VALID,0,VALID,100,VALID,0,VALID,19.7979,VALID,31,VALID,0,
2009-07-11, 00:15:00,VALID,917.592,VALID,0,VALID,100,VALID,-0.0339617,VALID,19.8111,VALID,31,VALID,0,
2009-07-11, 00:16:00,VALID,917.62,VALID,0,VALID,100,VALID,-0.0169808,VALID,19.8079,VALID,31,VALID,0,
2009-07-11, 00:17:00,VALID,917.654,VALID,0,VALID,100,VALID,-0.0169808,VALID,19.8109,VALID,31,VALID,0,
2009-07-11, 00:18:00,VALID,917.678,VALID,0,VALID,100,VALID,-0.0339617,VALID,19.8436,VALID,31,VALID,0,
2009-07-11, 00:19:00,VALID,917.692,VALID,0,VALID,100,VALID,0,VALID,19.8301,VALID,359,VALID,0,
2009-07-11, 00:20:00,VALID,917.721,VALID,0,VALID,100,VALID,-0.0169808,VALID,19.7949,VALID,245,VALID,0,
2009-07-11, 00:21:00,VALID,917.726,VALID,0,VALID,100,VALID,-0.0169808,VALID,19.7392,VALID,279,VALID,0,
2009-07-11, 00:22:00,VALID,917.728,VALID,0,VALID,100,VALID,0,VALID,19.7265,VALID,270,VALID,0,
2009-07-11, 00:23:00,VALID,917.729,VALID,0,VALID,100,VALID,-0.0169808,VALID,19.7163,VALID,242,VALID,0,
2009-07-11, 00:24:00,VALID,917.72,VALID,0,VALID,100,VALID,-0.0169808,VALID,19.739,VALID,242,VALID,0,
2009-07-11, 00:25:00,VALID,917.721,VALID,0,VALID,100,VALID,-0.0339617,VALID,19.736,VALID,242,VALID,0,
2009-07-11, 00:26:00,VALID,917.709,VALID,0,VALID,100,VALID,-0.0169808,VALID,19.7392,VALID,242,VALID,0,
2009-07-11, 00:27:00,VALID,917.702,VALID,0,VALID,100,VALID,-0.0339617,VALID,19.7722,VALID,242,VALID,0,
2009-07-11, 00:28:00,VALID,917.703,VALID,0,VALID,100,VALID,-0.0169808,VALID,19.8009,VALID,242,VALID,0,
2009-07-11, 00:29:00,VALID,917.71,VALID,0,VALID,100,VALID,0,VALID,19.8111,VALID,242,VALID,0,
2009-07-11, 00:30:00,VALID,917.727,VALID,0,VALID,100,VALID,-0.0509425,VALID,19.7946,VALID,242,VALID,0,
2009-07-11, 00:31:00,VALID,917.735,VALID,0,VALID,100,VALID,-0.0679233,VALID,19.7981,VALID,242,VALID,0,
2009-07-11, 00:32:00,VALID,917.742,VALID,0,VALID,100,VALID,-0.0169808,VALID,19.7949,VALID,242,VALID,0,
2009-07-11, 00:33:00,VALID,917.755,VALID,0,VALID,100,VALID,-0.0339617,VALID,19.7784,VALID,242,VALID,0,
2009-07-11, 00:34:00,VALID,917.767,VALID,0,VALID,100,VALID,-0.0509425,VALID,19.7657,VALID,242,VALID,0,
2009-07-11, 00:35:00,VALID,917.778,VALID,0,VALID,100,VALID,-0.0339617,VALID,19.756,VALID,242,VALID,0,
2009-07-11, 00:36:00,VALID,917.789,VALID,0,VALID,100,VALID,-0.0339617,VALID,19.7919,VALID,242,VALID,0,
2009-07-11, 00:37:00,VALID,917.786,VALID,0,VALID,100,VALID,0,VALID,19.8239,VALID,242,VALID,0,
2009-07-11, 00:38:00,VALID,917.788,VALID,0,VALID,100,VALID,-0.0509425,VALID,19.8371,VALID,242,VALID,0,
2009-07-11, 00:39:00,VALID,917.782,VALID,0,VALID,100,VALID,-0.0169808,VALID,19.8273,VALID,270,VALID,0,
2009-07-11, 00:40:00,VALID,917.79,VALID,0,VALID,100,VALID,-0.0339617,VALID,19.8663,VALID,295,VALID,0,
2009-07-11, 00:41:00,VALID,917.801,VALID,0,VALID,100,VALID,0,VALID,19.8858,VALID,346,VALID,0,
2009-07-11, 00:42:00,VALID,917.798,VALID,0,VALID,100,VALID,0.0509425,VALID,19.891,VALID,6,VALID,0,
2009-07-11, 00:43:00,VALID,917.799,VALID,0,VALID,100,VALID,0.0849042,VALID,19.8745,VALID,24,VALID,0,
2009-07-11, 00:44:00,VALID,917.811,VALID,0,VALID,100,VALID,0.0849042,VALID,19.8907,VALID,21,VALID,0,
2009-07-11, 00:45:00,VALID,917.828,VALID,0,VALID,100,VALID,0.0679233,VALID,19.897,VALID,28,VALID,0,
2009-07-11, 00:46:00,VALID,917.835,VALID,0,VALID,100,VALID,0.0849042,VALID,19.9297,VALID,38,VALID,0,
2009-07-11, 00:47:00,VALID,917.822,VALID,0,VALID,100,VALID,0.101885,VALID,19.9229,VALID,29,VALID,0,
2009-07-11, 00:48:00,VALID,917.827,VALID,0,VALID,100,VALID,0.0849042,VALID,19.907,VALID,31,VALID,0,
2009-07-11, 00:49:00,VALID,917.841,VALID,0,VALID,100,VALID,0.0849042,VALID,19.9232,VALID,31,VALID,0,
2009-07-11, 00:50:00,VALID,917.835,VALID,0,VALID,100,VALID,0.0679233,VALID,19.9035,VALID,38,VALID,0,
2009-07-11, 00:51:00,VALID,917.808,VALID,0,VALID,100,VALID,0.0679233,VALID,19.8583,VALID,62,VALID,0,
2009-07-11, 00:52:00,VALID,917.812,VALID,0,VALID,100,VALID,0.0509425,VALID,19.8351,VALID,63,VALID,0,
2009-07-11, 00:53:00,VALID,917.798,VALID,0,VALID,100,VALID,0.101885,VALID,19.8675,VALID,60,VALID,0,
2009-07-11, 00:54:00,VALID,917.802,VALID,0,VALID,100,VALID,0.0849042,VALID,19.8902,VALID,13,VALID,0,
2009-07-11, 00:55:00,VALID,917.787,VALID,0,VALID,100,VALID,0.101885,VALID,19.8773,VALID,25,VALID,0,
2009-07-11, 00:56:00,VALID,917.783,VALID,0,VALID,100,VALID,0.0679233,VALID,19.881,VALID,39,VALID,0.0197088,
2009-07-11, 00:57:01,VALID,917.776,VALID,0,VALID,100,VALID,-0.0169808,VALID,19.8823,VALID,27,VALID,0.113554,
2009-07-11, 00:58:00,VALID,917.78,VALID,0,VALID,100,VALID,-0.0679233,VALID,19.8698,VALID,20,VALID,0.00342988,
2009-07-11, 00:59:00,VALID,917.758,VALID,0,VALID,100,VALID,-0.0339617,VALID,19.8333,VALID,27,VALID,0.0012429,
2009-07-11, 01:00:00,VALID,917.747,VALID,0,VALID,100,VALID,0,VALID,19.8204,VALID,24,VALID,0.00111607,
2009-07-11, 01:01:00,VALID,917.73,VALID,0,VALID,100,VALID,-0.0169808,VALID,19.8371,VALID,53,VALID,0.00327035,
2009-07-11, 01:02:00,VALID,917.718,VALID,0,VALID,100,VALID,0,VALID,19.8758,VALID,54,VALID,0,
2009-07-11, 01:03:00,VALID,917.698,VALID,0,VALID,100,VALID,-0.0339617,VALID,19.8955,VALID,25,VALID,0,
2009-07-11, 01:04:00,VALID,917.674,VALID,0,VALID,100,VALID,-0.0169808,VALID,19.879,VALID,13,VALID,0,
2009-07-11, 01:05:00,VALID,917.659,VALID,0,VALID,100,VALID,0,VALID,19.8723,VALID,13,VALID,0,
2009-07-11, 01:06:01,VALID,917.645,VALID,0,VALID,100,VALID,-0.0169808,VALID,19.876,VALID,15,VALID,0,
2009-07-11, 01:07:01,VALID,917.656,VALID,0,VALID,100,VALID,-0.0169808,VALID,19.8693,VALID,15,VALID,0,
2009-07-11, 01:08:00,VALID,917.647,VALID,0,VALID,100,VALID,-0.0169808,VALID,19.8396,VALID,44,VALID,0,
2009-07-11, 01:09:00,VALID,917.655,VALID,0,VALID,100,VALID,-0.0339617,VALID,19.8266,VALID,47,VALID,0,
2009-07-11, 01:10:00,VALID,917.65,VALID,0,VALID,100,VALID,0,VALID,19.8139,VALID,47,VALID,0,
2009-07-11, 01:11:01,VALID,917.618,VALID,0,VALID,100,VALID,-0.0169808,VALID,19.8096,VALID,45,VALID,0,
2009-07-11, 01:12:00,VALID,917.6,VALID,0,VALID,100,VALID,-0.0169808,VALID,19.8561,VALID,43,VALID,0,
2009-07-11, 01:13:00,VALID,917.59,VALID,0,VALID,100,VALID,0,VALID,19.8693,VALID,42,VALID,0,
2009-07-11, 01:14:00,VALID,917.566,VALID,0,VALID,100,VALID,0,VALID,19.8436,VALID,42,VALID,0,
2009-07-11, 01:15:00,VALID,917.546,VALID,0,VALID,100,VALID,-0.0169808,VALID,19.8563,VALID,33,VALID,0,
2009-07-11, 01:16:01,VALID,917.537,VALID,0,VALID,100,VALID,0,VALID,19.863,VALID,13,VALID,0,
2009-07-11, 01:17:01,VALID,917.523,VALID,0,VALID,100,VALID,-0.0169808,VALID,19.8625,VALID,13,VALID,0,
2009-07-11, 01:18:00,VALID,917.502,VALID,0,VALID,100,VALID,0,VALID,19.8628,VALID,15,VALID,0,
2009-07-11, 01:19:00,VALID,917.485,VALID,0,VALID,100,VALID,0,VALID,19.8695,VALID,17,VALID,0.0256177,
2009-07-11, 01:20:00,VALID,917.455,VALID,0,VALID,100,VALID,-0.0509425,VALID,19.8728,VALID,19,VALID,0.000558036,
2009-07-11, 01:21:00,VALID,917.432,VALID,0,VALID,100,VALID,0,VALID,19.8823,VALID,27,VALID,0.136896,
2009-07-11, 01:22:01,VALID,917.4,VALID,0,VALID,100,VALID,-0.0679233,VALID,19.8693,VALID,29,VALID,0.0425967,
2009-07-11, 01:23:01,VALID,917.378,VALID,0,VALID,100,VALID,0,VALID,19.8758,VALID,28,VALID,0.0714286,
2009-07-11, 01:24:01,VALID,917.352,VALID,0,VALID,100,VALID,0,VALID,19.8628,VALID,26,VALID,0.00363372,
2009-07-11, 01:25:00,VALID,917.312,VALID,0,VALID,100,VALID,-0.0169808,VALID,19.8333,VALID,29,VALID,0.0968387,
2009-07-11, 01:26:00,VALID,917.3,VALID,0,VALID,100,VALID,0,VALID,19.8306,VALID,29,VALID,0.0525568,
2009-07-11, 01:27:01,VALID,917.27,VALID,0,VALID,100,VALID,-0.0679233,VALID,19.8119,VALID,22,VALID,0.149503,
2009-07-11, 01:28:00,VALID,917.264,VALID,0,VALID,100,VALID,-0.101885,VALID,19.7989,VALID,28,VALID,0.282738,
2009-07-11, 01:29:00,VALID,917.246,VALID,0,VALID,100,VALID,-0.101885,VALID,19.7991,VALID,25,VALID,0.155664,
2009-07-11, 01:30:00,VALID,917.222,VALID,0,VALID,100,VALID,-0.0849042,VALID,19.7437,VALID,357,VALID,0.11684,
2009-07-11, 01:31:00,VALID,917.201,VALID,0,VALID,100,VALID,-0.101885,VALID,19.737,VALID,18,VALID,0.259084,
2009-07-11, 01:32:01,VALID,917.174,VALID,0,VALID,100,VALID,-0.101885,VALID,19.7405,VALID,24,VALID,0,
2009-07-11, 01:33:01,VALID,917.152,VALID,0,VALID,100,VALID,-0.101885,VALID,19.757,VALID,20,VALID,0.00109012,
2009-07-11, 01:34:01,VALID,917.13,VALID,0,VALID,100,VALID,-0.101885,VALID,19.7535,VALID,21,VALID,0,
2009-07-11, 01:35:00,VALID,917.121,VALID,0,VALID,100,VALID,-0.101885,VALID,19.7375,VALID,12,VALID,0.0202753,
2009-07-11, 01:36:00,VALID,917.113,VALID,0,VALID,100,VALID,-0.101885,VALID,19.7345,VALID,25,VALID,0.0555556,
2009-07-11, 01:37:01,VALID,917.088,VALID,0,VALID,100,VALID,-0.101885,VALID,19.734,VALID,26,VALID,0.357143,
2009-07-11, 01:38:00,VALID,917.085,VALID,0,VALID,100,VALID,-0.118866,VALID,19.7575,VALID,30,VALID,0.0966082,
2009-07-11, 01:39:01,VALID,917.079,VALID,0,VALID,100,VALID,-0.101885,VALID,19.764,VALID,24,VALID,0.0147166,
2009-07-11, 01:40:01,VALID,917.056,VALID,0,VALID,100,VALID,-0.101885,VALID,19.7407,VALID,30,VALID,0.64755,
2009-07-11, 01:41:00,VALID,917.051,VALID,0,VALID,100,VALID,-0.0849042,VALID,19.7445,VALID,27,VALID,0.205669,
2009-07-11, 01:42:01,VALID,917.066,VALID,0,VALID,100,VALID,-0.0339617,VALID,19.7595,VALID,46,VALID,0,
2009-07-11, 01:43:01,VALID,917.047,VALID,0,VALID,100,VALID,-0.0169808,VALID,19.749,VALID,40,VALID,0,
2009-07-11, 01:44:01,VALID,917.031,VALID,0,VALID,100,VALID,0.0169808,VALID,19.7228,VALID,25,VALID,0.131771,
2009-07-11, 01:45:01,VALID,917.036,VALID,0,VALID,100,VALID,0,VALID,19.7195,VALID,16,VALID,0.0377907,
2009-07-11, 01:46:01,VALID,917.018,VALID,0,VALID,100,VALID,0,VALID,19.733,VALID,18,VALID,0,
2009-07-11, 01:47:01,VALID,917.025,VALID,0,VALID,100,VALID,0,VALID,19.736,VALID,18,VALID,0.00117188,
2009-07-11, 01:48:01,VALID,917.018,VALID,0,VALID,100,VALID,0,VALID,19.7387,VALID,21,VALID,0,
2009-07-11, 01:49:01,VALID,917.005,VALID,0,VALID,100,VALID,0,VALID,19.7552,VALID,18,VALID,0,
2009-07-11, 01:50:01,VALID,916.989,VALID,0,VALID,100,VALID,0.0169808,VALID,19.7585,VALID,21,VALID,0,
2009-07-11, 01:51:01,VALID,916.979,VALID,0,VALID,100,VALID,0.0339617,VALID,19.7679,VALID,23,VALID,0,
2009-07-11, 01:52:01,VALID,916.955,VALID,0,VALID,100,VALID,0,VALID,19.7844,VALID,24,VALID,0,
2009-07-11, 01:53:01,VALID,916.93,VALID,0,VALID,100,VALID,0,VALID,19.7742,VALID,24,VALID,0,
2009-07-11, 01:54:01,VALID,916.913,VALID,0,VALID,100,VALID,-0.0169808,VALID,19.7779,VALID,24,VALID,0,
2009-07-11, 01:55:00,VALID,916.887,VALID,0,VALID,100,VALID,0.0169808,VALID,19.7777,VALID,32,VALID,0.093006,
2009-07-11, 01:56:00,VALID,916.883,VALID,0,VALID,100,VALID,0,VALID,19.7772,VALID,32,VALID,0.155007,
2009-07-11, 01:57:00,VALID,916.87,VALID,0,VALID,100,VALID,0,VALID,19.8006,VALID,24,VALID,0.187137,
2009-07-11, 01:58:00,VALID,916.847,VALID,0,VALID,100,VALID,0,VALID,19.8006,VALID,26,VALID,0,
2009-07-11, 01:59:00,VALID,916.835,VALID,0,VALID,100,VALID,0,VALID,19.8141,VALID,25,VALID,0,
2009-07-11, 02:00:00,VALID,916.806,VALID,0,VALID,100,VALID,0,VALID,19.7974,VALID,12,VALID,0.00152439,
2009-07-11, 02:01:00,VALID,916.779,VALID,0,VALID,100,VALID,-0.0169808,VALID,19.8001,VALID,19,VALID,0,
2009-07-11, 02:02:00,VALID,916.749,VALID,0,VALID,100,VALID,0,VALID,19.8164,VALID,15,VALID,0.00111607,
2009-07-11, 02:03:00,VALID,916.703,VALID,0,VALID,100,VALID,0,VALID,19.8328,VALID,31,VALID,0.167719,
2009-07-11, 02:04:00,VALID,916.674,VALID,0,VALID,100,VALID,0.0169808,VALID,19.8169,VALID,36,VALID,0.673363,
2009-07-11, 02:05:00,VALID,916.683,VALID,0,VALID,100,VALID,0,VALID,19.8071,VALID,24,VALID,0.209517,
2009-07-11, 02:06:00,VALID,916.678,VALID,0,VALID,100,VALID,0.0169808,VALID,19.8234,VALID,30,VALID,0.0762195,
2009-07-11, 02:07:00,VALID,916.687,VALID,0,VALID,100,VALID,-0.0169808,VALID,19.8101,VALID,322,VALID,0.00152439,
2009-07-11, 02:08:00,VALID,916.674,VALID,0,VALID,100,VALID,0.0169808,VALID,19.7812,VALID,343,VALID,0,
2009-07-11, 02:09:00,VALID,916.671,VALID,0,VALID,100,VALID,0.0169808,VALID,19.7615,VALID,27,VALID,0,
2009-07-11, 02:10:00,VALID,916.687,VALID,0,VALID,100,VALID,0,VALID,19.7649,VALID,58,VALID,0,
2009-07-11, 02:11:00,VALID,916.696,VALID,0,VALID,100,VALID,-0.0169808,VALID,19.762,VALID,143,VALID,0,
2009-07-11, 02:12:00,VALID,916.696,VALID,0,VALID,100,VALID,-0.0509425,VALID,19.739,VALID,202,VALID,0,
2009-07-11, 02:13:00,VALID,916.71,VALID,0,VALID,100,VALID,-0.0169808,VALID,19.7752,VALID,184,VALID,0,
2009-07-11, 02:14:00,VALID,916.697,VALID,0,VALID,100,VALID,-0.0679233,VALID,19.7754,VALID,90,VALID,0,
2009-07-11, 02:15:00,VALID,916.711,VALID,0,VALID,100,VALID,-0.0339617,VALID,19.7492,VALID,80,VALID,0,
2009-07-11, 02:16:00,VALID,916.714,VALID,0,VALID,100,VALID,-0.0849042,VALID,19.7392,VALID,242,VALID,0.22237,
2009-07-11, 02:17:00,VALID,916.706,VALID,0,VALID,100,VALID,-0.0339617,VALID,19.7203,VALID,315,VALID,0.221912,
2009-07-11, 02:18:00,VALID,916.712,VALID,0,VALID,100,VALID,-0.101885,VALID,19.7138,VALID,25,VALID,0.0941134,
2009-07-11, 02:19:00,VALID,916.73,VALID,0,VALID,100,VALID,-0.0339617,VALID,19.7103,VALID,25,VALID,0.0476017,
2009-07-11, 02:20:00,VALID,916.732,VALID,0,VALID,100,VALID,-0.0509425,VALID,19.7165,VALID,351,VALID,0.0492369,
2009-07-11, 02:21:00,VALID,916.746,VALID,0,VALID,100,VALID,-0.0339617,VALID,19.7073,VALID,302,VALID,0.00497159,
2009-07-11, 02:22:00,VALID,916.731,VALID,0,VALID,100,VALID,-0.101885,VALID,19.7008,VALID,229,VALID,0,
2009-07-11, 02:23:00,VALID,916.729,VALID,0.2,VALID,100,VALID,-0.0509425,VALID,19.6976,VALID,212,VALID,0.0012429,
2009-07-11, 02:24:00,VALID,916.727,VALID,0,VALID,100,VALID,-0.0509425,VALID,19.6908,VALID,212,VALID,0,
2009-07-11, 02:25:00,VALID,916.695,VALID,0,VALID,100,VALID,-0.0509425,VALID,19.7362,VALID,267,VALID,0,
2009-07-11, 02:26:00,VALID,916.683,VALID,0,VALID,100,VALID,-0.0509425,VALID,19.7557,VALID,33,VALID,0,
2009-07-11, 02:27:00,VALID,916.655,VALID,0,VALID,100,VALID,-0.0339617,VALID,19.7784,VALID,32,VALID,0,
2009-07-11, 02:28:00,VALID,916.632,VALID,0,VALID,100,VALID,-0.0339617,VALID,19.7949,VALID,35,VALID,0,
2009-07-11, 02:29:00,VALID,916.617,VALID,0.2,VALID,100,VALID,-0.0169808,VALID,19.7917,VALID,10,VALID,0,
2009-07-11, 02:30:00,VALID,916.606,VALID,0,VALID,100,VALID,-0.0679233,VALID,19.7722,VALID,351,VALID,0,
2009-07-11, 02:31:00,VALID,916.595,VALID,0,VALID,100,VALID,-0.0509425,VALID,19.7522,VALID,7,VALID,0,
2009-07-11, 02:32:00,VALID,916.602,VALID,0,VALID,100,VALID,-0.0169808,VALID,19.7752,VALID,23,VALID,0,
2009-07-11, 02:33:00,VALID,916.611,VALID,0,VALID,100,VALID,-0.0679233,VALID,19.7684,VALID,32,VALID,0,
2009-07-11, 02:34:00,VALID,916.601,VALID,0,VALID,100,VALID,-0.0509425,VALID,19.7522,VALID,38,VALID,0,
2009-07-11, 02:35:00,VALID,916.63,VALID,0,VALID,100,VALID,-0.0339617,VALID,19.746,VALID,38,VALID,0,
2009-07-11, 02:36:00,VALID,916.641,VALID,0,VALID,100,VALID,-0.0339617,VALID,19.7455,VALID,85,VALID,0,
2009-07-11, 02:37:00,VALID,916.657,VALID,0,VALID,100,VALID,0,VALID,19.7452,VALID,168,VALID,0,
2009-07-11, 02:38:00,VALID,916.669,VALID,0,VALID,100,VALID,0,VALID,19.7717,VALID,168,VALID,0,
2009-07-11, 02:39:00,VALID,916.702,VALID,0,VALID,100,VALID,-0.0339617,VALID,19.7649,VALID,168,VALID,0,
2009-07-11, 02:40:00,VALID,916.721,VALID,0,VALID,100,VALID,-0.0339617,VALID,19.7557,VALID,210,VALID,0.0107639,
2009-07-11, 02:41:00,VALID,916.739,VALID,0,VALID,100,VALID,-0.0169808,VALID,19.716,VALID,228,VALID,0.109375,
2009-07-11, 02:42:00,VALID,916.733,VALID,0,VALID,100,VALID,-0.0169808,VALID,19.7068,VALID,232,VALID,0.0971236,
2009-07-11, 02:43:00,VALID,916.723,VALID,0,VALID,100,VALID,-0.0849042,VALID,19.6976,VALID,241,VALID,0.00218023,
2009-07-11, 02:44:00,VALID,916.721,VALID,0,VALID,100,VALID,-0.0169808,VALID,19.727,VALID,331,VALID,0.000181686,
2009-07-11, 02:45:00,VALID,916.719,VALID,0,VALID,100,VALID,-0.0509425,VALID,19.7265,VALID,338,VALID,0.0444568,
2009-07-11, 02:46:00,VALID,916.719,VALID,0,VALID,100,VALID,0,VALID,19.7235,VALID,3,VALID,0,
2009-07-11, 02:47:00,VALID,916.725,VALID,0,VALID,100,VALID,0,VALID,19.733,VALID,3,VALID,0,
2009-07-11, 02:48:00,VALID,916.716,VALID,0,VALID,100,VALID,-0.0169808,VALID,19.7263,VALID,355,VALID,0,
2009-07-11, 02:49:00,VALID,916.682,VALID,0,VALID,100,VALID,-0.0339617,VALID,19.73,VALID,23,VALID,0.0137649,
2009-07-11, 02:50:00,VALID,916.664,VALID,0,VALID,100,VALID,-0.0509425,VALID,19.7427,VALID,24,VALID,0.178163,
2009-07-11, 02:51:00,VALID,916.625,VALID,0,VALID,100,VALID,-0.0339617,VALID,19.7395,VALID,25,VALID,0.232507,
2009-07-11, 02:52:00,VALID,916.626,VALID,0,VALID,100,VALID,-0.0679233,VALID,19.7293,VALID,31,VALID,0.00497159,
2009-07-11, 02:53:00,VALID,916.62,VALID,0,VALID,100,VALID,0,VALID,19.6938,VALID,179,VALID,0,
2009-07-11, 02:54:00,VALID,916.61,VALID,0,VALID,100,VALID,0,VALID,19.6803,VALID,57,VALID,0.107922,
2009-07-11, 02:55:00,VALID,916.609,VALID,0,VALID,100,VALID,0,VALID,19.6903,VALID,25,VALID,0.28404,
2009-07-11, 02:56:00,VALID,916.599,VALID,0,VALID,100,VALID,-0.0169808,VALID,19.6906,VALID,31,VALID,0.0192587,
2009-07-11, 02:57:00,VALID,916.595,VALID,0,VALID,100,VALID,-0.0849042,VALID,19.6946,VALID,42,VALID,0.0101744,
2009-07-11, 02:58:00,VALID,916.592,VALID,0,VALID,100,VALID,-0.0849042,VALID,19.6981,VALID,36,VALID,0.00213068,
2009-07-11, 02:59:00,VALID,916.598,VALID,0,VALID,100,VALID,-0.118866,VALID,19.7115,VALID,15,VALID,0,
2009-07-11, 03:00:00,VALID,916.582,VALID,0,VALID,100,VALID,-0.118866,VALID,19.6756,VALID,86,VALID,0,
2009-07-11, 03:01:00,VALID,916.593,VALID,0,VALID,100,VALID,-0.101885,VALID,19.6626,VALID,130,VALID,0,
2009-07-11, 03:02:00,VALID,916.601,VALID,0,VALID,100,VALID,-0.101885,VALID,19.6429,VALID,145,VALID,0,
2009-07-11, 03:03:00,VALID,916.588,VALID,0,VALID,100,VALID,-0.135847,VALID,19.6434,VALID,114,VALID,0,
2009-07-11, 03:04:00,VALID,916.582,VALID,0,VALID,100,VALID,-0.118866,VALID,19.6534,VALID,19,VALID,0.0362043,
2009-07-11, 03:05:00,VALID,916.566,VALID,0,VALID,100,VALID,-0.101885,VALID,19.6564,VALID,30,VALID,0.651456,
2009-07-11, 03:06:00,VALID,916.557,VALID,0,VALID,100,VALID,-0.101885,VALID,19.6496,VALID,44,VALID,0.33689,
2009-07-11, 03:07:00,VALID,916.596,VALID,0.2,VALID,100,VALID,-0.101885,VALID,19.6461,VALID,27,VALID,0.0115412,
2009-07-11, 03:08:00,VALID,916.612,VALID,0,VALID,100,VALID,-0.0849042,VALID,19.6531,VALID,22,VALID,0.00514915,
2009-07-11, 03:09:00,VALID,916.597,VALID,0,VALID,100,VALID,-0.101885,VALID,19.6526,VALID,33,VALID,0.0314317,
2009-07-11, 03:10:00,VALID,916.583,VALID,0,VALID,100,VALID,-0.101885,VALID,19.6529,VALID,17,VALID,0.172247,
2009-07-11, 03:11:00,VALID,916.577,VALID,0,VALID,100,VALID,-0.118866,VALID,19.6399,VALID,17,VALID,0.122456,
2009-07-11, 03:12:00,VALID,916.553,VALID,0,VALID,100,VALID,-0.0169808,VALID,19.6254,VALID,20,VALID,0.113917,
2009-07-11, 03:13:00,VALID,916.527,VALID,0,VALID,100,VALID,0,VALID,19.5827,VALID,24,VALID,0.0770597,
2009-07-11, 03:14:00,VALID,916.526,VALID,0,VALID,100,VALID,0.0169808,VALID,19.576,VALID,19,VALID,0,
2009-07-11, 03:15:00,VALID,916.529,VALID,0,VALID,100,VALID,-0.0169808,VALID,19.5835,VALID,10,VALID,0,
2009-07-11, 03:16:00,VALID,916.524,VALID,0,VALID,100,VALID,-0.0169808,VALID,19.557,VALID,18,VALID,0.391197,
2009-07-11, 03:17:00,VALID,916.512,VALID,0,VALID,100,VALID,-0.0169808,VALID,19.5575,VALID,30,VALID,0.107422,
2009-07-11, 03:18:00,VALID,916.495,VALID,0,VALID,100,VALID,0.0169808,VALID,19.5865,VALID,31,VALID,0,
2009-07-11, 03:19:00,VALID,916.47,VALID,0.2,VALID,100,VALID,0.0339617,VALID,19.5735,VALID,26,VALID,0.0409226,
2009-07-11, 03:20:00,VALID,916.444,VALID,0,VALID,100,VALID,0.0169808,VALID,19.5638,VALID,29,VALID,0.215863,
2009-07-11, 03:21:00,VALID,916.446,VALID,0,VALID,100,VALID,0.0169808,VALID,19.5765,VALID,21,VALID,0.00228659,
2009-07-11, 03:22:00,VALID,916.452,VALID,0,VALID,100,VALID,0,VALID,19.5535,VALID,354,VALID,0.0012718,
2009-07-11, 03:23:00,VALID,916.428,VALID,0,VALID,100,VALID,0,VALID,19.5084,VALID,359,VALID,0,
2009-07-11, 03:24:00,VALID,916.421,VALID,0,VALID,100,VALID,0,VALID,19.4889,VALID,25,VALID,0.213742,
2009-07-11, 03:25:00,VALID,916.416,VALID,0,VALID,100,VALID,-0.0169808,VALID,19.5084,VALID,17,VALID,0.00243056,
2009-07-11, 03:26:00,VALID,916.387,VALID,0,VALID,100,VALID,0.0679233,VALID,19.5049,VALID,24,VALID,0.00120192,
2009-07-11, 03:27:00,VALID,916.371,VALID,0,VALID,100,VALID,0,VALID,19.5016,VALID,19,VALID,0,
2009-07-11, 03:28:00,VALID,916.37,VALID,0,VALID,100,VALID,0.0509425,VALID,19.4822,VALID,10,VALID,0.0852108,
2009-07-11, 03:29:00,VALID,916.356,VALID,0,VALID,100,VALID,-0.0169808,VALID,19.4627,VALID,17,VALID,0.271076,
2009-07-11, 03:30:00,VALID,916.377,VALID,0,VALID,100,VALID,0,VALID,19.4462,VALID,18,VALID,0,
2009-07-11, 03:31:00,VALID,916.393,VALID,0,VALID,100,VALID,0,VALID,19.45,VALID,24,VALID,0.0663194,
2009-07-11, 03:32:00,VALID,916.396,VALID,0,VALID,100,VALID,-0.0169808,VALID,19.4432,VALID,30,VALID,0.131138,
2009-07-11, 03:33:00,VALID,916.397,VALID,0,VALID,100,VALID,0.0169808,VALID,19.463,VALID,36,VALID,0.000762195,
2009-07-11, 03:34:00,VALID,916.41,VALID,0,VALID,100,VALID,0,VALID,19.4852,VALID,26,VALID,0.000372024,
2009-07-11, 03:35:00,VALID,916.42,VALID,0,VALID,100,VALID,0,VALID,19.5046,VALID,30,VALID,0,
2009-07-11, 03:36:00,VALID,916.436,VALID,0,VALID,100,VALID,0.0169808,VALID,19.5084,VALID,12,VALID,0,
2009-07-11, 03:37:00,VALID,916.449,VALID,0,VALID,100,VALID,0.0339617,VALID,19.5011,VALID,12,VALID,0,
2009-07-11, 03:38:00,VALID,916.459,VALID,0,VALID,100,VALID,0.0339617,VALID,19.5014,VALID,19,VALID,0,
2009-07-11, 03:39:00,VALID,916.458,VALID,0,VALID,100,VALID,0.0169808,VALID,19.4984,VALID,35,VALID,0,
2009-07-11, 03:40:00,VALID,916.458,VALID,0,VALID,100,VALID,0.0339617,VALID,19.5046,VALID,26,VALID,0,
2009-07-11, 03:41:00,VALID,916.472,VALID,0,VALID,100,VALID,0,VALID,19.5116,VALID,21,VALID,0,
2009-07-11, 03:42:00,VALID,916.472,VALID,0,VALID,100,VALID,-0.0679233,VALID,19.5026,VALID,20,VALID,0,
2009-07-11, 03:43:00,VALID,916.461,VALID,0,VALID,100,VALID,-0.0849042,VALID,19.5029,VALID,36,VALID,0,
2009-07-11, 03:44:00,VALID,916.445,VALID,0,VALID,100,VALID,-0.101885,VALID,19.5094,VALID,21,VALID,0.0299479,
2009-07-11, 03:45:00,VALID,916.454,VALID,0,VALID,100,VALID,-0.0849042,VALID,19.5124,VALID,14,VALID,0.11843,
2009-07-11, 03:46:00,VALID,916.453,VALID,0,VALID,100,VALID,-0.101885,VALID,19.5191,VALID,21,VALID,0.0578835,
2009-07-11, 03:47:00,VALID,916.454,VALID,0,VALID,100,VALID,-0.118866,VALID,19.5323,VALID,29,VALID,0.00111607,
2009-07-11, 03:48:00,VALID,916.461,VALID,0,VALID,100,VALID,-0.118866,VALID,19.5361,VALID,31,VALID,0.0636433,